Location: Crescent
(42.8242°N, 73.7329°W)
Time: 02:21:14
(UTC+00:00)

Explorer 7 - Pass Details

Date: 16 February 2026
Orbit: 430 x 541 km, 50.2° (Epoch: 13 March)

Event Time Altitude Azimuth Distance (km) Brightness Sun altitude
Rises 22:00:14 0° 269° (W) 2,459 11.8 4.0°
Reaches altitude 10° 22:02:29 10° 279° (W) 1,606 10.4 3.6°
Maximum altitude 22:05:47 33° 345° (NNW) 819 7.7 3.0°
Drops below altitude 10° 22:09:15 10° 51° (NE) 1,672 8.7 2.4°
Sets 22:11:38 0° 61° (ENE) 2,579 9.6 2.0°
